TimeEDT,TemperatureF,Dew PointF,Humidity,Sea Level PressureIn,VisibilityMPH,Wind Direction,Wind SpeedMPH,Gust SpeedMPH,PrecipitationIn,Events,Conditions,WindDirDegrees,DateUTC
12:53 AM,71.1,66.0,84,29.78,9.0,Calm,Calm,-,N/A,,Clear,0,2013-06-13 04:53:00
1:53 AM,70.0,66.0,87,29.78,9.0,SW,3.5,-,N/A,,Clear,220,2013-06-13 05:53:00
2:53 AM,71.1,66.9,87,29.76,5.0,South,4.6,-,0.02,Rain,Light Rain,190,2013-06-13 06:53:00
3:53 AM,71.1,68.0,90,29.70,8.0,South,6.9,-,0.06,Rain,Light Rain,190,2013-06-13 07:53:00
4:53 AM,69.1,66.9,93,29.67,3.0,South,4.6,-,N/A,,Clear,170,2013-06-13 08:53:00
5:53 AM,69.1,66.9,93,29.66,4.0,Calm,Calm,-,N/A,,Clear,0,2013-06-13 09:53:00
6:14 AM,69.8,66.2,88,29.66,2.0,Variable,4.6,-,N/A,,Clear,0,2013-06-13 10:14:00
6:39 AM,69.8,66.2,88,29.65,3.0,South,5.8,-,N/A,,Clear,190,2013-06-13 10:39:00
6:53 AM,70.0,66.9,90,29.64,4.0,SSW,4.6,-,N/A,,Clear,200,2013-06-13 10:53:00
7:39 AM,68.0,64.4,88,29.68,2.0,WSW,9.2,21.9,0.19,Rain,Light Rain,240,2013-06-13 11:39:00
7:53 AM,68.0,64.0,87,29.68,7.0,West,12.7,-,0.20,Rain,Light Rain,260,2013-06-13 11:53:00
8:53 AM,70.0,64.0,81,29.65,9.0,SSW,11.5,19.6,0.07,Rain,Light Rain,200,2013-06-13 12:53:00
9:53 AM,69.1,63.0,81,29.61,10.0,SSW,6.9,-,0.03,Rain,Light Rain,210,2013-06-13 13:53:00
10:53 AM,71.1,62.1,73,29.58,10.0,SW,9.2,-,0.00,,Clear,220,2013-06-13 14:53:00
11:53 AM,75.9,62.1,62,29.54,10.0,SSW,9.2,18.4,N/A,,Partly Cloudy,200,2013-06-13 15:53:00
12:53 PM,80.1,64.0,58,29.54,10.0,WSW,17.3,24.2,N/A,,Clear,250,2013-06-13 16:53:00
1:53 PM,82.9,64.9,54,29.52,10.0,West,17.3,24.2,N/A,,Clear,280,2013-06-13 17:53:00
2:53 PM,78.1,64.0,62,29.53,10.0,West,16.1,-,N/A,,Mostly Cloudy,270,2013-06-13 18:53:00
3:53 PM,73.0,66.0,79,29.52,10.0,WSW,4.6,-,0.03,Rain,Light Rain,240,2013-06-13 19:53:00
4:53 PM,73.9,64.9,73,29.53,10.0,WSW,10.4,-,0.00,,Clear,240,2013-06-13 20:53:00
5:53 PM,73.9,63.0,68,29.52,10.0,WNW,12.7,19.6,0.00,,Mostly Cloudy,290,2013-06-13 21:53:00
6:53 PM,72.0,57.9,61,29.57,10.0,NW,13.8,24.2,N/A,,Overcast,320,2013-06-13 22:53:00
7:53 PM,70.0,55.9,61,29.60,10.0,WNW,13.8,24.2,N/A,,Overcast,290,2013-06-13 23:53:00
8:53 PM,70.0,55.0,59,29.60,10.0,NW,21.9,29.9,N/A,,Clear,310,2013-06-14 00:53:00
9:53 PM,69.1,54.0,58,29.63,10.0,NW,15.0,24.2,N/A,,Partly Cloudy,310,2013-06-14 01:53:00
10:53 PM,68.0,52.0,56,29.64,10.0,NW,9.2,25.3,N/A,,Scattered Clouds,320,2013-06-14 02:53:00
11:53 PM,68.0,51.1,55,29.66,10.0,NNW,11.5,26.5,N/A,,Overcast,330,2013-06-14 03:53:00